Location: Leiter
(44.7178°N, 106.2687°W)
Time: 22:06:28
(UTC+00:00)

CUBESAT XI-V - Pass Details

Date: 30 June 2022
Orbit: 667 x 690 km, 98.1° (Epoch: 07 August)

Event Time Altitude Azimuth Distance (km) Brightness Sun altitude
Exits shadow 08:55:38 31° 177° (S) 1,179 ? -17.9°
Maximum altitude 08:57:50 75° 258° (WSW) 702 ? -17.7°
Drops below altitude 10° 09:02:26 10° 343° (NNW) 2,110 ? -17.3°
Sets 09:04:41 0° 346° (NNW) 3,026 ? -17.1°
